Location: Hilton Head Island
(32.2163°N, 80.7526°W)
Time: 03:07:49
(UTC-04:00)

Transit 2A Rocket - Pass Details

Date: 13 February 2026
Orbit: 583 x 900 km, 66.7° (Epoch: 8 March)

Event Time Altitude Azimuth Distance (km) Brightness Sun altitude
Rises 01:11:58 0° 356° (N) 3,353 - -69.5°
Reaches altitude 10° 01:17:26 10° 40° (NE) 2,311 - -69.0°
Maximum altitude 01:17:56 10° 45° (NE) 2,291 - -68.9°
Drops below altitude 10° 01:18:27 10° 51° (NE) 2,289 - -68.9°
Sets 01:23:32 0° 96° (E) 3,095 - -68.3°
